Location: Unspecified
(0.0000°N, 0.0000°E)
Time: 00:33:46
(UTC+00:00)

Hubble Space Telescope - Pass Details

Date: 28 September 2023
Orbit: 521 x 525 km, 28.5° (Epoch: 04 October)

Event Time Altitude Azimuth Distance (km) Brightness Sun altitude
Rises 19:49:55 0° 250° (WSW) 2,633 5.3 -29.8°
Reaches altitude 10° 19:52:13 10° 256° (WSW) 1,744 4.2 -30.4°
Enters shadow 19:54:02 24° 268° (W) 1,104 3.0 -30.8°
